contact:dominique.lefevre@mio.osupytheas.fr, maurice.libes@osupytheas.fr, didier.mallarino@osupytheas.fr
Project:EMSO http://www.emso-fr.org/EMSO-France
Depth: 2436.0 m
Title:EMSO Ligure Ouest : Data MII capteur MICROCAT
DateTime_Computer,Latitude,Longitude,Temperature,Conductivity,Pressure,DateTime_Instrument
DateTime_Computer,Latitude,Longitude,degC,S m-1,dbar,DateTime_Instrument
2021-02-20T00:01:31Z,42.805,6.029,13.2980,4.59980,2470.227,2021-2-20T02:02:35Z
2021-02-20T00:04:34Z,42.805,6.029,13.2982,4.59983,2470.25,2021-2-20T02:05:38Z
2021-02-20T00:07:37Z,42.805,6.029,13.2978,4.59982,2470.227,2021-2-20T02:08:42Z
2021-02-20T00:10:40Z,42.805,6.029,13.2978,4.59984,2470.25,2021-2-20T02:11:45Z
2021-02-20T00:13:44Z,42.805,6.029,13.2976,4.59981,2470.264,2021-2-20T02:14:48Z
2021-02-20T00:16:47Z,42.805,6.029,13.2976,4.59981,2470.25,2021-2-20T02:17:51Z
2021-02-20T00:19:50Z,42.805,6.029,13.2981,4.59981,2470.227,2021-2-20T02:20:54Z
2021-02-20T00:22:53Z,42.805,6.029,13.2978,4.59981,2470.25,2021-2-20T02:23:57Z
2021-02-20T00:25:56Z,42.805,6.029,13.2978,4.59981,2470.24,2021-2-20T02:27:00Z
2021-02-20T00:28:59Z,42.805,6.029,13.2979,4.59981,2470.213,2021-2-20T02:30:03Z
2021-02-20T00:32:02Z,42.805,6.029,13.2976,4.59982,2470.25,2021-2-20T02:33:07Z
2021-02-20T00:35:05Z,42.805,6.029,13.2979,4.59981,2470.264,2021-2-20T02:36:10Z
2021-02-20T00:38:09Z,42.805,6.029,13.2975,4.59981,2470.24,2021-2-20T02:39:13Z
2021-02-20T00:41:12Z,42.805,6.029,13.2976,4.59979,2470.25,2021-2-20T02:42:16Z
2021-02-20T00:44:15Z,42.805,6.029,13.2976,4.59982,2470.25,2021-2-20T02:45:19Z
2021-02-20T00:47:18Z,42.805,6.029,13.2976,4.59980,2470.25,2021-2-20T02:48:22Z
2021-02-20T00:50:21Z,42.805,6.029,13.2975,4.59981,2470.273,2021-2-20T02:51:25Z
2021-02-20T00:53:24Z,42.805,6.029,13.2979,4.59982,2470.26,2021-2-20T02:54:28Z
2021-02-20T00:56:27Z,42.805,6.029,13.2976,4.59981,2470.264,2021-2-20T02:57:32Z
2021-02-20T00:59:30Z,42.805,6.029,13.2979,4.59981,2470.25,2021-2-20T03:00:35Z
2021-02-20T01:02:34Z,42.805,6.029,13.2979,4.59982,2470.24,2021-2-20T03:03:38Z
2021-02-20T01:05:37Z,42.805,6.029,13.2980,4.59981,2470.227,2021-2-20T03:06:41Z
2021-02-20T01:08:40Z,42.805,6.029,13.2975,4.59981,2470.236,2021-2-20T03:09:44Z
2021-02-20T01:11:43Z,42.805,6.029,13.2977,4.59982,2470.25,2021-2-20T03:12:47Z
2021-02-20T01:14:46Z,42.805,6.029,13.2976,4.59982,2470.227,2021-2-20T03:15:50Z
2021-02-20T01:17:49Z,42.805,6.029,13.2979,4.59982,2470.24,2021-2-20T03:18:53Z
2021-02-20T01:20:52Z,42.805,6.029,13.2974,4.59981,2470.24,2021-2-20T03:21:57Z
2021-02-20T01:23:55Z,42.805,6.029,13.2976,4.59982,2470.25,2021-2-20T03:25:00Z
2021-02-20T01:26:59Z,42.805,6.029,13.2977,4.59982,2470.227,2021-2-20T03:28:03Z
2021-02-20T01:30:02Z,42.805,6.029,13.2974,4.59982,2470.273,2021-2-20T03:31:06Z
2021-02-20T01:33:05Z,42.805,6.029,13.2979,4.59981,2470.24,2021-2-20T03:34:09Z
2021-02-20T01:36:08Z,42.805,6.029,13.2976,4.59982,2470.25,2021-2-20T03:37:12Z
2021-02-20T01:39:11Z,42.805,6.029,13.2976,4.59981,2470.25,2021-2-20T03:40:15Z
2021-02-20T01:42:14Z,42.805,6.029,13.2979,4.59981,2470.25,2021-2-20T03:43:18Z
2021-02-20T01:45:17Z,42.805,6.029,13.2976,4.59982,2470.24,2021-2-20T03:46:22Z
2021-02-20T01:48:20Z,42.805,6.029,13.2976,4.59981,2470.24,2021-2-20T03:49:25Z
2021-02-20T01:51:24Z,42.805,6.029,13.2977,4.59982,2470.264,2021-2-20T03:52:28Z
2021-02-20T01:54:27Z,42.805,6.029,13.2975,4.59982,2470.227,2021-2-20T03:55:31Z
2021-02-20T01:57:30Z,42.805,6.029,13.2978,4.59981,2470.203,2021-2-20T03:58:34Z
2021-02-20T02:00:33Z,42.805,6.029,13.2982,4.59981,2470.25,2021-2-20T04:01:37Z
2021-02-20T02:03:36Z,42.805,6.029,13.2975,4.59981,2470.25,2021-2-20T04:04:40Z
2021-02-20T02:06:39Z,42.805,6.029,13.2979,4.59980,2470.227,2021-2-20T04:07:43Z
2021-02-20T02:09:42Z,42.805,6.029,13.2977,4.59982,2470.227,2021-2-20T04:10:46Z
2021-02-20T02:12:45Z,42.805,6.029,13.2977,4.59981,2470.217,2021-2-20T04:13:50Z
2021-02-20T02:15:48Z,42.805,6.029,13.2979,4.59981,2470.217,2021-2-20T04:16:53Z
2021-02-20T02:18:52Z,42.805,6.029,13.2978,4.59982,2470.203,2021-2-20T04:19:56Z
2021-02-20T02:21:55Z,42.805,6.029,13.2975,4.59981,2470.25,2021-2-20T04:22:59Z
2021-02-20T02:24:58Z,42.805,6.029,13.2979,4.59983,2470.24,2021-2-20T04:26:02Z
2021-02-20T02:28:01Z,42.805,6.029,13.2974,4.59981,2470.273,2021-2-20T04:29:05Z
2021-02-20T02:31:04Z,42.805,6.029,13.2972,4.59983,2470.236,2021-2-20T04:32:08Z
2021-02-20T02:34:07Z,42.805,6.029,13.2980,4.59981,2470.227,2021-2-20T04:35:11Z
2021-02-20T02:37:10Z,42.805,6.029,13.2974,4.59980,2470.203,2021-2-20T04:38:15Z
2021-02-20T02:40:13Z,42.805,6.029,13.2977,4.59980,2470.227,2021-2-20T04:41:18Z
2021-02-20T02:43:17Z,42.805,6.029,13.2976,4.59981,2470.18,2021-2-20T04:44:21Z
2021-02-20T02:46:20Z,42.805,6.029,13.2977,4.59983,2470.24,2021-2-20T04:47:24Z
2021-02-20T02:49:23Z,42.805,6.029,13.2979,4.59981,2470.227,2021-2-20T04:50:27Z
2021-02-20T02:52:26Z,42.805,6.029,13.2977,4.59981,2470.25,2021-2-20T04:53:30Z
2021-02-20T02:55:29Z,42.805,6.029,13.2977,4.59980,2470.227,2021-2-20T04:56:33Z
2021-02-20T02:58:32Z,42.805,6.029,13.2976,4.59981,2470.24,2021-2-20T04:59:36Z
2021-02-20T03:01:35Z,42.805,6.029,13.2979,4.59981,2470.25,2021-2-20T05:02:40Z
2021-02-20T03:04:38Z,42.805,6.029,13.2976,4.59981,2470.24,2021-2-20T05:05:43Z
2021-02-20T03:07:42Z,42.805,6.029,13.2979,4.59981,2470.227,2021-2-20T05:08:46Z
2021-02-20T03:10:45Z,42.805,6.029,13.2975,4.59981,2470.213,2021-2-20T05:11:49Z
2021-02-20T03:13:48Z,42.805,6.029,13.2979,4.59981,2470.24,2021-2-20T05:14:52Z
2021-02-20T03:16:51Z,42.805,6.029,13.2978,4.59980,2470.25,2021-2-20T05:17:55Z
2021-02-20T03:19:54Z,42.805,6.029,13.2977,4.59981,2470.227,2021-2-20T05:20:58Z
2021-02-20T03:22:57Z,42.805,6.029,13.2977,4.59982,2470.227,2021-2-20T05:24:01Z
2021-02-20T03:26:00Z,42.805,6.029,13.2974,4.59981,2470.227,2021-2-20T05:27:05Z
2021-02-20T03:29:03Z,42.805,6.029,13.2975,4.59982,2470.25,2021-2-20T05:30:08Z
2021-02-20T03:32:07Z,42.805,6.029,13.2977,4.59981,2470.227,2021-2-20T05:33:11Z
2021-02-20T03:35:10Z,42.805,6.029,13.2978,4.59980,2470.217,2021-2-20T05:36:14Z
2021-02-20T03:38:13Z,42.805,6.029,13.2976,4.59980,2470.24,2021-2-20T05:39:17Z
2021-02-20T03:41:16Z,42.805,6.029,13.2976,4.59980,2470.227,2021-2-20T05:42:20Z
2021-02-20T03:44:19Z,42.805,6.029,13.2975,4.59981,2470.25,2021-2-20T05:45:23Z
2021-02-20T03:47:22Z,42.805,6.029,13.2977,4.59980,2470.217,2021-2-20T05:48:26Z
2021-02-20T03:50:25Z,42.805,6.029,13.2976,4.59981,2470.24,2021-2-20T05:51:30Z
2021-02-20T03:53:28Z,42.805,6.029,13.2974,4.59981,2470.227,2021-2-20T05:54:33Z
2021-02-20T03:56:32Z,42.805,6.029,13.2975,4.59981,2470.25,2021-2-20T05:57:36Z
2021-02-20T03:59:35Z,42.805,6.029,13.2979,4.59980,2470.24,2021-2-20T06:00:39Z
2021-02-20T04:02:38Z,42.805,6.029,13.2980,4.59981,2470.227,2021-2-20T06:03:42Z
2021-02-20T04:05:41Z,42.805,6.029,13.2974,4.59981,2470.227,2021-2-20T06:06:45Z
2021-02-20T04:08:44Z,42.805,6.029,13.2976,4.59980,2470.227,2021-2-20T06:09:48Z
2021-02-20T04:11:47Z,42.805,6.029,13.2979,4.59982,2470.203,2021-2-20T06:12:51Z
2021-02-20T04:14:50Z,42.805,6.029,13.2977,4.59980,2470.203,2021-2-20T06:15:55Z
2021-02-20T04:17:53Z,42.805,6.029,13.2972,4.59980,2470.24,2021-2-20T06:18:58Z
2021-02-20T04:20:57Z,42.805,6.029,13.2981,4.59980,2470.24,2021-2-20T06:22:01Z
2021-02-20T04:24:00Z,42.805,6.029,13.2977,4.59981,2470.24,2021-2-20T06:25:04Z
2021-02-20T04:27:03Z,42.805,6.029,13.2974,4.59980,2470.203,2021-2-20T06:28:07Z
2021-02-20T04:30:06Z,42.805,6.029,13.2976,4.59980,2470.227,2021-2-20T06:31:10Z
2021-02-20T04:33:09Z,42.805,6.029,13.2978,4.59981,2470.24,2021-2-20T06:34:13Z
2021-02-20T04:36:12Z,42.805,6.029,13.2978,4.59979,2470.227,2021-2-20T06:37:16Z
2021-02-20T04:39:15Z,42.805,6.029,13.2977,4.59983,2470.227,2021-2-20T06:40:20Z
2021-02-20T04:42:18Z,42.805,6.029,13.2976,4.59982,2470.203,2021-2-20T06:43:23Z
2021-02-20T04:45:22Z,42.805,6.029,13.2976,4.59983,2470.25,2021-2-20T06:46:26Z
2021-02-20T04:48:25Z,42.805,6.029,13.2977,4.59982,2470.227,2021-2-20T06:49:29Z
2021-02-20T04:51:28Z,42.805,6.029,13.2979,4.59981,2470.203,2021-2-20T06:52:32Z
2021-02-20T04:54:31Z,42.805,6.029,13.2976,4.59980,2470.264,2021-2-20T06:55:35Z
2021-02-20T04:57:34Z,42.805,6.029,13.2981,4.59981,2470.227,2021-2-20T06:58:38Z
2021-02-20T05:00:37Z,42.805,6.029,13.2976,4.59981,2470.203,2021-2-20T07:01:41Z
2021-02-20T05:03:40Z,42.805,6.029,13.2976,4.59981,2470.24,2021-2-20T07:04:45Z
2021-02-20T05:06:43Z,42.805,6.029,13.2975,4.59981,2470.24,2021-2-20T07:07:48Z
2021-02-20T05:09:47Z,42.805,6.029,13.2982,4.59980,2470.227,2021-2-20T07:10:51Z
2021-02-20T05:12:50Z,42.805,6.029,13.2977,4.59981,2470.203,2021-2-20T07:13:54Z
2021-02-20T05:15:53Z,42.805,6.029,13.2979,4.59984,2470.189,2021-2-20T07:16:57Z
2021-02-20T05:18:56Z,42.805,6.029,13.2979,4.59981,2470.203,2021-2-20T07:20:00Z
2021-02-20T05:21:59Z,42.805,6.029,13.2981,4.59980,2470.227,2021-2-20T07:23:03Z
2021-02-20T05:25:02Z,42.805,6.029,13.2976,4.59980,2470.217,2021-2-20T07:26:06Z
2021-02-20T05:28:05Z,42.805,6.029,13.2978,4.59980,2470.227,2021-2-20T07:29:10Z
2021-02-20T05:31:08Z,42.805,6.029,13.2979,4.59987,2470.227,2021-2-20T07:32:13Z
2021-02-20T05:34:12Z,42.805,6.029,13.2978,4.59981,2470.25,2021-2-20T07:35:16Z
2021-02-20T05:37:15Z,42.805,6.029,13.2979,4.59982,2470.227,2021-2-20T07:38:19Z
2021-02-20T05:40:18Z,42.805,6.029,13.2979,4.59981,2470.227,2021-2-20T07:41:22Z
2021-02-20T05:43:21Z,42.805,6.029,13.2975,4.59981,2470.25,2021-2-20T07:44:25Z
2021-02-20T05:46:24Z,42.805,6.029,13.2975,4.59981,2470.264,2021-2-20T07:47:28Z
2021-02-20T05:49:27Z,42.805,6.029,13.2979,4.59982,2470.25,2021-2-20T07:50:31Z
2021-02-20T05:52:30Z,42.805,6.029,13.2977,4.59981,2470.227,2021-2-20T07:53:35Z
2021-02-20T05:55:33Z,42.805,6.029,13.2976,4.59981,2470.217,2021-2-20T07:56:38Z
2021-02-20T05:58:36Z,42.805,6.029,13.2977,4.59981,2470.227,2021-2-20T07:59:41Z
2021-02-20T06:01:40Z,42.805,6.029,13.2975,4.59981,2470.203,2021-2-20T08:02:44Z
2021-02-20T06:04:43Z,42.805,6.029,13.2976,4.59981,2470.227,2021-2-20T08:05:47Z
2021-02-20T06:07:46Z,42.805,6.029,13.2977,4.59981,2470.217,2021-2-20T08:08:50Z
2021-02-20T06:10:49Z,42.805,6.029,13.2978,4.59981,2470.24,2021-2-20T08:11:53Z
2021-02-20T06:13:52Z,42.805,6.029,13.2979,4.59980,2470.24,2021-2-20T08:14:56Z
2021-02-20T06:16:55Z,42.805,6.029,13.2981,4.59979,2470.24,2021-2-20T08:17:59Z
2021-02-20T06:19:58Z,42.805,6.029,13.2975,4.59979,2470.264,2021-2-20T08:21:03Z
2021-02-20T06:23:01Z,42.805,6.029,13.2977,4.59982,2470.25,2021-2-20T08:24:06Z
2021-02-20T06:26:05Z,42.805,6.029,13.2979,4.59981,2470.203,2021-2-20T08:27:09Z
2021-02-20T06:29:08Z,42.805,6.029,13.2972,4.59983,2470.24,2021-2-20T08:30:12Z
2021-02-20T06:32:11Z,42.805,6.029,13.2978,4.59980,2470.24,2021-2-20T08:33:15Z
2021-02-20T06:35:14Z,42.805,6.029,13.2978,4.59981,2470.227,2021-2-20T08:36:18Z
2021-02-20T06:38:17Z,42.805,6.029,13.2976,4.59980,2470.227,2021-2-20T08:39:21Z
2021-02-20T06:41:20Z,42.805,6.029,13.2981,4.59981,2470.18,2021-2-20T08:42:24Z
2021-02-20T06:44:23Z,42.805,6.029,13.2975,4.59980,2470.203,2021-2-20T08:45:28Z
2021-02-20T06:47:26Z,42.805,6.029,13.2983,4.59981,2470.156,2021-2-20T08:48:31Z
2021-02-20T06:50:30Z,42.805,6.029,13.2976,4.59981,2470.227,2021-2-20T08:51:34Z
2021-02-20T06:53:33Z,42.805,6.029,13.2976,4.59982,2470.227,2021-2-20T08:54:37Z
2021-02-20T06:56:36Z,42.805,6.029,13.2976,4.59982,2470.24,2021-2-20T08:57:40Z
2021-02-20T06:59:39Z,42.805,6.029,13.2977,4.59980,2470.264,2021-2-20T09:00:43Z
2021-02-20T07:02:42Z,42.805,6.029,13.2976,4.59981,2470.217,2021-2-20T09:03:46Z
2021-02-20T07:05:45Z,42.805,6.029,13.2979,4.59981,2470.203,2021-2-20T09:06:49Z
2021-02-20T07:08:48Z,42.805,6.029,13.2973,4.59982,2470.227,2021-2-20T09:09:53Z
2021-02-20T07:11:51Z,42.805,6.029,13.2977,4.59981,2470.24,2021-2-20T09:12:56Z
2021-02-20T07:14:54Z,42.805,6.029,13.2979,4.59983,2470.25,2021-2-20T09:15:59Z
2021-02-20T07:17:58Z,42.805,6.029,13.2979,4.59981,2470.203,2021-2-20T09:19:02Z
2021-02-20T07:21:01Z,42.805,6.029,13.2976,4.59981,2470.227,2021-2-20T09:22:05Z
2021-02-20T07:24:04Z,42.805,6.029,13.2974,4.59981,2470.189,2021-2-20T09:25:08Z
2021-02-20T07:27:07Z,42.805,6.029,13.2976,4.59980,2470.227,2021-2-20T09:28:11Z
2021-02-20T07:30:10Z,42.805,6.029,13.2979,4.59981,2470.227,2021-2-20T09:31:14Z
2021-02-20T07:33:13Z,42.805,6.029,13.2977,4.59981,2470.227,2021-2-20T09:34:18Z
2021-02-20T07:36:16Z,42.805,6.029,13.2977,4.59981,2470.227,2021-2-20T09:37:21Z
2021-02-20T07:39:19Z,42.805,6.029,13.2976,4.59983,2470.24,2021-2-20T09:40:24Z
2021-02-20T07:42:23Z,42.805,6.029,13.2978,4.59984,2470.236,2021-2-20T09:43:27Z
2021-02-20T07:45:26Z,42.805,6.029,13.2975,4.59981,2470.203,2021-2-20T09:46:30Z
2021-02-20T07:48:29Z,42.805,6.029,13.2974,4.59981,2470.203,2021-2-20T09:49:33Z
2021-02-20T07:51:32Z,42.805,6.029,13.2977,4.59982,2470.24,2021-2-20T09:52:36Z
2021-02-20T07:54:35Z,42.805,6.029,13.2976,4.59980,2470.24,2021-2-20T09:55:39Z
2021-02-20T07:57:38Z,42.805,6.029,13.2977,4.59981,2470.217,2021-2-20T09:58:43Z
2021-02-20T08:00:41Z,42.805,6.029,13.2977,4.59984,2470.203,2021-2-20T10:01:46Z
2021-02-20T08:03:44Z,42.805,6.029,13.2976,4.59981,2470.203,2021-2-20T10:04:49Z
2021-02-20T08:06:48Z,42.805,6.029,13.2976,4.59981,2470.227,2021-2-20T10:07:52Z
2021-02-20T08:09:51Z,42.805,6.029,13.2977,4.59981,2470.24,2021-2-20T10:10:55Z
2021-02-20T08:12:54Z,42.805,6.029,13.2979,4.59981,2470.264,2021-2-20T10:13:58Z
2021-02-20T08:15:57Z,42.805,6.029,13.2972,4.59984,2470.24,2021-2-20T10:17:01Z
2021-02-20T08:19:00Z,42.805,6.029,13.2975,4.59981,2470.264,2021-2-20T10:20:04Z
2021-02-20T08:22:03Z,42.805,6.029,13.2979,4.59982,2470.24,2021-2-20T10:23:08Z
2021-02-20T08:25:06Z,42.805,6.029,13.2980,4.59981,2470.264,2021-2-20T10:26:11Z
2021-02-20T08:28:09Z,42.805,6.029,13.2978,4.59981,2470.24,2021-2-20T10:29:14Z
2021-02-20T08:31:13Z,42.805,6.029,13.2979,4.59981,2470.217,2021-2-20T10:32:17Z
2021-02-20T08:34:16Z,42.805,6.029,13.2977,4.59983,2470.24,2021-2-20T10:35:20Z
2021-02-20T08:37:19Z,42.805,6.029,13.2978,4.59983,2470.227,2021-2-20T10:38:23Z
2021-02-20T08:40:22Z,42.805,6.029,13.2977,4.59982,2470.227,2021-2-20T10:41:26Z
2021-02-20T08:43:25Z,42.805,6.029,13.2976,4.59983,2470.18,2021-2-20T10:44:29Z
2021-02-20T08:46:28Z,42.805,6.029,13.2974,4.59982,2470.227,2021-2-20T10:47:33Z
2021-02-20T08:49:31Z,42.805,6.029,13.2978,4.59983,2470.24,2021-2-20T10:50:36Z
2021-02-20T08:52:35Z,42.805,6.029,13.2978,4.59981,2470.227,2021-2-20T10:53:39Z
2021-02-20T08:55:38Z,42.805,6.029,13.2974,4.59981,2470.24,2021-2-20T10:56:42Z
2021-02-20T08:58:41Z,42.805,6.029,13.2976,4.59982,2470.25,2021-2-20T10:59:45Z
2021-02-20T09:01:44Z,42.805,6.029,13.2976,4.59982,2470.25,2021-2-20T11:02:48Z
2021-02-20T09:04:47Z,42.805,6.029,13.2980,4.59985,2470.264,2021-2-20T11:05:51Z
2021-02-20T09:07:50Z,42.805,6.029,13.2979,4.59983,2470.25,2021-2-20T11:08:54Z
2021-02-20T09:10:53Z,42.805,6.029,13.2977,4.59983,2470.24,2021-2-20T11:11:58Z
2021-02-20T09:13:56Z,42.805,6.029,13.2975,4.59981,2470.273,2021-2-20T11:15:01Z
2021-02-20T09:17:00Z,42.805,6.029,13.2977,4.59981,2470.227,2021-2-20T11:18:04Z
2021-02-20T09:20:03Z,42.805,6.029,13.2976,4.59981,2470.25,2021-2-20T11:21:07Z
2021-02-20T09:23:06Z,42.805,6.029,13.2976,4.59981,2470.273,2021-2-20T11:24:10Z
2021-02-20T09:26:09Z,42.805,6.029,13.2980,4.59983,2470.273,2021-2-20T11:27:13Z
2021-02-20T09:29:12Z,42.805,6.029,13.2974,4.59983,2470.273,2021-2-20T11:30:16Z
2021-02-20T09:32:15Z,42.805,6.029,13.2977,4.59983,2470.227,2021-2-20T11:33:19Z
2021-02-20T09:35:18Z,42.805,6.029,13.2977,4.59984,2470.25,2021-2-20T11:36:23Z
2021-02-20T09:38:21Z,42.805,6.029,13.2976,4.59983,2470.227,2021-2-20T11:39:26Z
2021-02-20T09:41:25Z,42.805,6.029,13.2976,4.59981,2470.264,2021-2-20T11:42:29Z
2021-02-20T09:44:28Z,42.805,6.029,13.2978,4.59983,2470.227,2021-2-20T11:45:32Z
2021-02-20T09:47:31Z,42.805,6.029,13.2975,4.59982,2470.25,2021-2-20T11:48:35Z
2021-02-20T09:50:34Z,42.805,6.029,13.2976,4.59984,2470.287,2021-2-20T11:51:38Z
2021-02-20T09:53:37Z,42.805,6.029,13.2977,4.59984,2470.24,2021-2-20T11:54:41Z
2021-02-20T09:56:40Z,42.805,6.029,13.2974,4.59982,2470.25,2021-2-20T11:57:45Z
2021-02-20T09:59:43Z,42.805,6.029,13.2976,4.59983,2470.25,2021-2-20T12:00:48Z
2021-02-20T10:02:46Z,42.805,6.029,13.2978,4.59986,2470.25,2021-2-20T12:03:51Z
2021-02-20T10:05:50Z,42.805,6.029,13.2977,4.59986,2470.273,2021-2-20T12:06:54Z
2021-02-20T10:08:53Z,42.805,6.029,13.2974,4.59984,2470.236,2021-2-20T12:09:57Z
2021-02-20T10:11:56Z,42.805,6.029,13.2974,4.59981,2470.273,2021-2-20T12:13:00Z
2021-02-20T10:14:59Z,42.805,6.029,13.2973,4.59982,2470.264,2021-2-20T12:16:03Z
2021-02-20T10:18:02Z,42.805,6.029,13.2977,4.59984,2470.287,2021-2-20T12:19:06Z
2021-02-20T10:21:05Z,42.805,6.029,13.2976,4.59981,2470.25,2021-2-20T12:22:10Z
2021-02-20T10:24:08Z,42.805,6.029,13.2976,4.59986,2470.287,2021-2-20T12:25:13Z
2021-02-20T10:27:11Z,42.805,6.029,13.2980,4.59982,2470.297,2021-2-20T12:28:16Z
2021-02-20T10:30:15Z,42.805,6.029,13.2975,4.59983,2470.264,2021-2-20T12:31:19Z
2021-02-20T10:33:18Z,42.805,6.029,13.2979,4.59984,2470.25,2021-2-20T12:34:22Z
2021-02-20T10:36:21Z,42.805,6.029,13.2980,4.59984,2470.287,2021-2-20T12:37:25Z
2021-02-20T10:39:24Z,42.805,6.029,13.2978,4.59983,2470.297,2021-2-20T12:40:28Z
2021-02-20T10:42:27Z,42.805,6.029,13.2977,4.59985,2470.273,2021-2-20T12:43:31Z
2021-02-20T10:45:30Z,42.805,6.029,13.2976,4.59983,2470.297,2021-2-20T12:46:35Z
2021-02-20T10:48:33Z,42.805,6.029,13.2976,4.59984,2470.287,2021-2-20T12:49:38Z
2021-02-20T10:51:37Z,42.805,6.029,13.2979,4.59983,2470.273,2021-2-20T12:52:41Z
2021-02-20T10:54:40Z,42.805,6.029,13.2979,4.59987,2470.273,2021-2-20T12:55:44Z
2021-02-20T10:57:43Z,42.805,6.029,13.2979,4.59988,2470.297,2021-2-20T12:58:47Z
2021-02-20T11:00:46Z,42.805,6.029,13.2979,4.59986,2470.273,2021-2-20T13:01:50Z
2021-02-20T11:03:49Z,42.805,6.029,13.2981,4.59986,2470.273,2021-2-20T13:04:53Z
2021-02-20T11:06:52Z,42.805,6.029,13.2976,4.59985,2470.287,2021-2-20T13:07:56Z
2021-02-20T11:09:55Z,42.805,6.029,13.2979,4.59982,2470.25,2021-2-20T13:11:00Z
2021-02-20T11:12:58Z,42.805,6.029,13.2976,4.59983,2470.297,2021-2-20T13:14:03Z
2021-02-20T11:16:02Z,42.805,6.029,13.2976,4.59983,2470.297,2021-2-20T13:17:06Z
2021-02-20T11:19:05Z,42.805,6.029,13.2978,4.59984,2470.297,2021-2-20T13:20:09Z
2021-02-20T11:22:08Z,42.805,6.029,13.2978,4.59983,2470.273,2021-2-20T13:23:12Z
2021-02-20T11:25:11Z,42.805,6.029,13.2972,4.59983,2470.287,2021-2-20T13:26:15Z
2021-02-20T11:28:14Z,42.805,6.029,13.2977,4.59986,2470.287,2021-2-20T13:29:18Z
2021-02-20T11:31:17Z,42.805,6.029,13.2977,4.59987,2470.287,2021-2-20T13:32:21Z
2021-02-20T11:34:20Z,42.805,6.029,13.2975,4.59986,2470.25,2021-2-20T13:35:25Z
2021-02-20T11:37:23Z,42.805,6.029,13.2976,4.59985,2470.297,2021-2-20T13:38:28Z
2021-02-20T11:40:27Z,42.805,6.029,13.2979,4.59987,2470.287,2021-2-20T13:41:31Z
2021-02-20T11:43:30Z,42.805,6.029,13.2976,4.59983,2470.273,2021-2-20T13:44:34Z
2021-02-20T11:46:33Z,42.805,6.029,13.2979,4.59989,2470.297,2021-2-20T13:47:37Z
2021-02-20T11:49:36Z,42.805,6.029,13.2977,4.59990,2470.273,2021-2-20T13:50:40Z
2021-02-20T11:52:39Z,42.805,6.029,13.2979,4.59984,2470.25,2021-2-20T13:53:43Z
2021-02-20T11:55:42Z,42.805,6.029,13.2977,4.59987,2470.273,2021-2-20T13:56:46Z
2021-02-20T11:58:45Z,42.805,6.029,13.2976,4.59983,2470.273,2021-2-20T13:59:50Z
2021-02-20T12:01:48Z,42.805,6.029,13.2974,4.59981,2470.273,2021-2-20T14:02:53Z
2021-02-20T12:04:52Z,42.805,6.029,13.2976,4.59983,2470.273,2021-2-20T14:05:56Z
2021-02-20T12:07:55Z,42.805,6.029,13.2977,4.59984,2470.273,2021-2-20T14:08:59Z
2021-02-20T12:10:58Z,42.805,6.029,13.2974,4.59981,2470.334,2021-2-20T14:12:02Z
2021-02-20T12:14:01Z,42.805,6.029,13.2978,4.59986,2470.264,2021-2-20T14:15:05Z
2021-02-20T12:17:04Z,42.805,6.029,13.2976,4.59986,2470.25,2021-2-20T14:18:08Z
2021-02-20T12:20:07Z,42.805,6.029,13.2978,4.59983,2470.31,2021-2-20T14:21:11Z
2021-02-20T12:23:10Z,42.805,6.029,13.2975,4.59989,2470.31,2021-2-20T14:24:15Z
2021-02-20T12:26:13Z,42.805,6.029,13.2976,4.59987,2470.273,2021-2-20T14:27:18Z
2021-02-20T12:29:17Z,42.805,6.029,13.2977,4.59985,2470.31,2021-2-20T14:30:21Z
2021-02-20T12:32:20Z,42.805,6.029,13.2976,4.59992,2470.297,2021-2-20T14:33:24Z
2021-02-20T12:35:23Z,42.805,6.029,13.2975,4.59991,2470.25,2021-2-20T14:36:27Z
2021-02-20T12:38:26Z,42.805,6.029,13.2979,4.59986,2470.287,2021-2-20T14:39:30Z
2021-02-20T12:41:29Z,42.805,6.029,13.2976,4.59985,2470.297,2021-2-20T14:42:33Z
2021-02-20T12:44:32Z,42.805,6.029,13.2976,4.59986,2470.297,2021-2-20T14:45:37Z
2021-02-20T12:47:35Z,42.805,6.029,13.2979,4.59992,2470.227,2021-2-20T14:48:40Z
2021-02-20T12:50:38Z,42.805,6.029,13.2977,4.59997,2470.287,2021-2-20T14:51:43Z
2021-02-20T12:53:42Z,42.805,6.029,13.2976,4.60002,2470.25,2021-2-20T14:54:46Z
2021-02-20T12:56:45Z,42.805,6.029,13.2979,4.59994,2470.264,2021-2-20T14:57:49Z
2021-02-20T12:59:48Z,42.805,6.029,13.2976,4.59996,2470.287,2021-2-20T15:00:52Z
2021-02-20T13:02:51Z,42.805,6.029,13.2976,4.59993,2470.297,2021-2-20T15:03:55Z
2021-02-20T13:05:54Z,42.805,6.029,13.2976,4.59994,2470.287,2021-2-20T15:06:58Z
2021-02-20T13:08:57Z,42.805,6.029,13.2979,4.59994,2470.25,2021-2-20T15:10:02Z
2021-02-20T13:12:00Z,42.805,6.029,13.2977,4.59994,2470.25,2021-2-20T15:13:05Z
2021-02-20T13:15:04Z,42.805,6.029,13.2976,4.59997,2470.25,2021-2-20T15:16:08Z
2021-02-20T13:18:07Z,42.805,6.029,13.2978,4.59994,2470.273,2021-2-20T15:19:11Z
2021-02-20T13:21:10Z,42.805,6.029,13.2974,4.59997,2470.25,2021-2-20T15:22:14Z
2021-02-20T13:24:13Z,42.805,6.029,13.2974,4.59995,2470.273,2021-2-20T15:25:17Z
2021-02-20T13:27:16Z,42.805,6.029,13.2979,4.59999,2470.273,2021-2-20T15:28:20Z
2021-02-20T13:30:19Z,42.805,6.029,13.2974,4.59997,2470.273,2021-2-20T15:31:23Z
2021-02-20T13:33:22Z,42.805,6.029,13.2976,4.59999,2470.273,2021-2-20T15:34:27Z
2021-02-20T13:36:25Z,42.805,6.029,13.2977,4.59999,2470.273,2021-2-20T15:37:30Z
2021-02-20T13:39:29Z,42.805,6.029,13.2973,4.59995,2470.334,2021-2-20T15:40:33Z
2021-02-20T13:42:32Z,42.805,6.029,13.2978,4.59994,2470.31,2021-2-20T15:43:36Z
2021-02-20T13:45:35Z,42.805,6.029,13.2977,4.59991,2470.273,2021-2-20T15:46:39Z
2021-02-20T13:48:38Z,42.805,6.029,13.2976,4.59998,2470.273,2021-2-20T15:49:42Z
2021-02-20T13:51:41Z,42.805,6.029,13.2980,4.59996,2470.213,2021-2-20T15:52:45Z
2021-02-20T13:54:44Z,42.805,6.029,13.2976,4.59992,2470.273,2021-2-20T15:55:49Z
2021-02-20T13:57:47Z,42.805,6.029,13.2975,4.59992,2470.25,2021-2-20T15:58:52Z
2021-02-20T14:00:50Z,42.805,6.029,13.2976,4.59991,2470.287,2021-2-20T16:01:55Z
2021-02-20T14:03:54Z,42.805,6.029,13.2979,4.59986,2470.264,2021-2-20T16:04:58Z
2021-02-20T14:06:57Z,42.805,6.029,13.2976,4.59995,2470.25,2021-2-20T16:08:01Z
2021-02-20T14:10:00Z,42.805,6.029,13.2979,4.59991,2470.236,2021-2-20T16:11:04Z
2021-02-20T14:13:03Z,42.805,6.029,13.2979,4.59991,2470.25,2021-2-20T16:14:07Z
2021-02-20T14:16:06Z,42.805,6.029,13.2977,4.59989,2470.25,2021-2-20T16:17:10Z
2021-02-20T14:19:09Z,42.805,6.029,13.2974,4.59991,2470.25,2021-2-20T16:20:14Z
2021-02-20T14:22:12Z,42.805,6.029,13.2976,4.59989,2470.273,2021-2-20T16:23:17Z
2021-02-20T14:25:15Z,42.805,6.029,13.2976,4.59992,2470.227,2021-2-20T16:26:20Z
2021-02-20T14:28:19Z,42.805,6.029,13.2981,4.59991,2470.297,2021-2-20T16:29:23Z
2021-02-20T14:31:22Z,42.805,6.029,13.2979,4.59988,2470.227,2021-2-20T16:32:26Z
2021-02-20T14:34:25Z,42.805,6.029,13.2979,4.59988,2470.264,2021-2-20T16:35:29Z
2021-02-20T14:37:28Z,42.805,6.029,13.2981,4.59990,2470.273,2021-2-20T16:38:32Z
2021-02-20T14:40:31Z,42.805,6.029,13.2978,4.59995,2470.25,2021-2-20T16:41:35Z
2021-02-20T14:43:34Z,42.805,6.029,13.2979,4.59995,2470.25,2021-2-20T16:44:39Z
2021-02-20T14:46:37Z,42.805,6.029,13.2976,4.59991,2470.273,2021-2-20T16:47:42Z
2021-02-20T14:49:41Z,42.805,6.029,13.2977,4.59991,2470.25,2021-2-20T16:50:45Z
2021-02-20T14:52:44Z,42.805,6.029,13.2980,4.59987,2470.273,2021-2-20T16:53:48Z
2021-02-20T14:55:47Z,42.805,6.029,13.2979,4.59996,2470.273,2021-2-20T16:56:51Z
2021-02-20T14:58:50Z,42.805,6.029,13.2979,4.59994,2470.25,2021-2-20T16:59:54Z
2021-02-20T15:01:53Z,42.805,6.029,13.2980,4.59993,2470.227,2021-2-20T17:02:57Z
2021-02-20T15:04:56Z,42.805,6.029,13.2979,4.59989,2470.227,2021-2-20T17:06:00Z
2021-02-20T15:07:59Z,42.805,6.029,13.2982,4.59986,2470.25,2021-2-20T17:09:04Z
2021-02-20T15:11:02Z,42.805,6.029,13.2980,4.59988,2470.25,2021-2-20T17:12:07Z
2021-02-20T15:14:06Z,42.805,6.029,13.2976,4.59989,2470.264,2021-2-20T17:15:10Z